Regional Weather Roundup
Issued by NWS Little Rock, AR

Home | Current Version | Previous Version | Graphics & Text | Print | Product List | Glossary On
Versions: 1 2 3 4 5 6 7 8 9 10 11 12 13 14 15 16 17 18 19 20 21 22 23 24 25 26 27 28 29 30 31 32
000
ASUS44 KLZK 261005
RWRLZK

WEATHER ROUNDUP FOR ARKANSAS
NATIONAL WEATHER SERVICE LITTLE ROCK AR
400 AM CST SUN FEB 26 2017

NOTE: "FAIR" INDICATES FEW OR NO CLOUDS BELOW 12,000 FEET WITH NO
SIGNIFICANT WEATHER AND/OR OBSTRUCTIONS TO VISIBILITY.

ARZ001-003-010-029-261100-
NORTHWEST ARKANSAS

CITY           SKY/WX    TMP DP  RH WIND       PRES   REMARKS
FAYETTEVILLE   PTCLDY    23  21  92 CALM      30.04F
FORT SMITH     PTCLDY    33  27  78 NE5       30.06F WCI  29
HARRISON       CLEAR     27  20  75 SE6       30.06F WCI  20
BENTONVILLE    CLEAR     32  19  59 SE9       30.03S WCI  24
ROGERS         PTCLDY    31  25  78 E8        30.04F WCI  23
SILOAM SPGS    CLEAR     28  18  64 E5        30.03S WCI  23
HIGHFILL       CLEAR     31  19  61 CALM      30.02F
$$

ARZ004-005-016-261100-
NORTH CENTRAL ARKANSAS

CITY           SKY/WX    TMP DP  RH WIND       PRES   REMARKS
BATESVILLE     CLEAR     28  23  80 CALM      30.14F
FLIPPIN        PTCLDY    27  19  74 CALM      30.07F
MTN HOME       PTCLDY    31  16  54 S3        30.08F
$$

ARZ040-041-261100-
WEST CENTRAL ARKANSAS

CITY           SKY/WX    TMP DP  RH WIND       PRES   REMARKS
MENA           MOCLDY    30  28  93 CALM      30.06F
MOUNT IDA      CLEAR     28  24  85 CALM      30.06S FOG
$$

ARZ009-017-025-026-028-261100-
NORTHEAST ARKANSAS

CITY           SKY/WX    TMP DP  RH WIND       PRES   REMARKS
CORNING        FAIR      32  25  74 CALM      30.16R
JONESBORO      CLEAR     28  24  85 NE3       30.16S
NEWPORT        CLEAR     28  26  92 E3        30.16S
WALNUT RIDGE   CLEAR     30  23  74 CALM      30.14F
BLYTHEVILLE    CLEAR     30  25  81 E8        30.18R WCI  22
$$

ARZ022-023-033-042-044-261100-
CENTRAL ARKANSAS

CITY           SKY/WX    TMP DP  RH WIND       PRES   REMARKS
LITTLE ROCK    PTCLDY    31  30  96 CALM      30.13F
N LITTLE ROCK    N/A     37  30  75 SE5       30.14F
JACKSONVILLE   PTCLDY    29  27  91 CALM      30.11F
SEARCY         CLEAR     28  27  96 CALM      30.16F
HOT SPRINGS    PTCLDY    36  25  64 E5        30.10F
RUSSELLVILLE   CLEAR     29  25  85 CALM      30.10S
CLINTON        FAIR      27  23  86 CALM      30.13F
$$

ARZ036-261100-
EAST ARKANSAS

CITY           SKY/WX    TMP DP  RH WIND       PRES   REMARKS
WEST MEMPHIS   CLEAR     31  28  89 SE3       30.17R
$$

ARZ050-053-066-070-073-261100-
SOUTHWEST ARKANSAS

CITY           SKY/WX    TMP DP  RH WIND       PRES   REMARKS
ARKADELPHIA    FAIR      29  28  96 CALM      30.13S
CAMDEN         PTCLDY    30  27  86 CALM      30.13S
TEXARKANA      PTCLDY    39  27  62 SE7       30.08F
EL DORADO      CLEAR     36  29  75 CALM      30.13R
DE QUEEN       CLEAR     29  29 100 NE3       30.07F
$$

ARZ056-057-069-261100-
SOUTHEAST ARKANSAS

CITY           SKY/WX    TMP DP  RH WIND       PRES   REMARKS
PINE BLUFF     PTCLDY    35  31  85 E6        30.13F WCI  30
STUTTGART      PTCLDY    37  23  56 SE9       30.14F
MONTICELLO     PTCLDY    35  27  72 SE5       30.14S WCI  31

$$






USA.gov is the U.S. government's official web portal to all federal, state and local government web resources and services.